7 * 24
多渠道服务支持
ORBCOMM FM36 是 ORBCOMM 公司制造的一颗低轨卫星,属于其机器对机器(M2M)通信网络的一部分。该卫星主要用于提供全球范围内的物联网(IoT)数据传输服务,支持远程监控、物流跟踪和资产管理等应用。FM36 运行在低地球轨道,通过星载通信系统与地面终端进行数据交换,具备低功耗、高可靠性和广覆盖的特点。该卫星是 ORBCOMM 卫星星座的重要成员,助力企业实现高效、实时的远程通信与数据管理。
| 数据来源 | 国际轨道数据 |
| 星历时间: | 2025-10-25T18:26:23+0800 11小时前 查看轨道信息 |
| 半长轴: | 7141.584km |
| 偏心率: | 0.0002615 |
| 轨道倾角: | 45.038° |
| 近地点辐角 | 263.444° |
| 升交点赤经 | 193.497° |
| 平近点角 | 96.611° |
| 近地点: | 761.581km |
| 远地点: | 765.317km |
| 周期: | 100.104分钟 |
| 每日圈数: | 14.385037 |